Location: Mohawk View
(42.7837°N, 73.7885°W)
Time: 09:02:10
(UTC+00:00)

Meteor 1-24 Rocket - Pass Details

Date: 23 October 2021
Orbit: 790 x 927 km, 81.3° (Epoch: 27 November)

Event Time Altitude Azimuth Distance (km) Brightness Sun altitude
Rises 09:20:58 0° 146° (SE) 3,278 7.2 -22.2°
Reaches altitude 10° 09:23:57 10° 128° (SE) 2,363 6.7 -21.6°
Maximum altitude 09:27:34 19° 85° (E) 1,843 6.4 -21.0°
Drops below altitude 10° 09:31:14 10° 42° (NE) 2,412 6.7 -20.3°
Sets 09:34:19 0° 26° (NNE) 3,372 7.2 -19.7°
